Location: *
(33.3200°N, 8.3381°W)
Time: 16:22:50
(UTC+00:00)

OAO 1 - Pass Details

Date: 09 April 2020
Orbit: 773 x 784 km, 35.0° (Epoch: 26 May)

Event Time Altitude Azimuth Distance (km) Brightness Sun altitude
Rises 19:59:41 0° 249° (WSW) 3,255 8.6 -12.9°
Reaches altitude 10° 20:02:09 10° 248° (WSW) 2,328 7.7 -13.4°
Maximum altitude 20:07:39 76° 164° (SSE) 804 4.5 -14.5°
Enters shadow 20:11:41 19° 80° (E) 1,792 5.9 -15.3°
